Skip Page Navigation
NASA JPL Caltech
NASA Logo - Jet Propulsion Laboratory + View the NASA Portal
+ Center for Near-Earth Object Studies
JPL Home Earth Solar System Stars & Galaxies Technology
JPL Solar System Dynamics
BODIES ORBITS EPHEMERIDES TOOLS PHYSICAL DATA DISCOVERY FAQ SITE MAP
IMPORTANT: The SSD Announcement email list is now available. Major changes are coming in the near future, including possible hostname and/or URL changes. To be notified of such changes, subscribe to this email list.

Please visit this page for more details.


JPL Small-Body Database Browser
Search: [ help ]  
11698 Fichtelman (1998 FZ102)
Classification: Main-belt Asteroid          SPK-ID: 2011698
Ephemeris | Orbit Diagram | Orbital Elements | Mission Design | Physical Parameters | Discovery Circumstances | Close-Approach Data ]

[ show orbit diagram ]
Orbital Elements at Epoch 2459000.5 (2020-May-31.0) TDB
Reference: JPL 25 (heliocentric ecliptic J2000)
 Element Value Uncertainty (1-sigma)   Units 
e .1226093965450639 3.5886e-08  
a 2.337317357186851 8.4683e-09 au
q 2.050740286487868 8.3498e-08 au
i 6.616894355082059 4.2578e-06 deg
node 329.6340048496562 2.7477e-05 deg
peri 194.645437329486 3.0645e-05 deg
M 92.58772822313793 1.3892e-05 deg
tp 2458664.819679958507
(2019-Jun-30.31967996)
4.997e-05 TDB
period 1305.193652918012
3.57
7.0933e-06
1.942e-08
d
yr
n .275821139028029 1.499e-09 deg/d
Q 2.623894427885835 9.5066e-09 au
  Orbit Determination Parameters
   # obs. used (total)      1638  
   data-arc span      9761 days (26.72 yr)  
   first obs. used      1992-09-02  
   last obs. used      2019-05-25  
   planetary ephem.      DE431  
   SB-pert. ephem.      SB431-N16  
   condition code      0  
   norm. resid. RMS      .48962  
   source      ORB  
   producer      Otto Matic  
   solution date      2020-Feb-22 20:07:32  

Additional Information
 Earth MOID = 1.05942 au 
 Jupiter MOID = 2.36058 au 
 T_jup = 3.548 
[ hide covariance matrix ]
Orbital Elements at Epoch 2456678.5 (2014-Jan-21.0) TDB
Reference: JPL 25 (heliocentric ecliptic J2000)
 Element Value Uncertainty (1-sigma)   Units 
e .1228773515619133 3.5852e-08  
q 2.049400159732212 8.349e-08 au
tp 2456055.680840562955
(2012-May-08.18084056)
4.8989e-05 TDB
node 329.6707300002116 2.7474e-05 deg
peri 194.5445231171016 3.0636e-05 deg
i 6.618487730779421 4.2582e-06 deg
  Orbit Determination Parameters
   # obs. used (total)      1638  
   data-arc span      9761 days (26.72 yr)  
   first obs. used      1992-09-02  
   last obs. used      2019-05-25  
   planetary ephem.      DE431  
   SB-pert. ephem.      SB431-N16  
   condition code      0  
   norm. resid. RMS      .48962  
   source      ORB  
   producer      Otto Matic  
   solution date      2020-Feb-22 20:07:32  

Additional Information
 Jupiter MOID = 2.36058 au 
 T_jup = 3.548 
Orbit Covariance (6×6)
  e q tp node peri i
e 1.285341038570264E-15 -2.98122572587673E-15 -2.147636956124692E-13 -1.606322409996099E-16 -4.961262504416254E-14 -7.753043838613001E-16
q -2.98122572587673E-15 6.970516318997972E-15 4.701985428914947E-13 2.847375800498993E-16 1.132877947351444E-13 1.99000659369791E-15
tp -2.147636956124692E-13 4.701985428914947E-13 2.399967630182626E-9 2.963218872075086E-12 6.694338964776414E-10 6.195679905645116E-14
node -1.606322409996099E-16 2.847375800498993E-16 2.963218872075086E-12 7.548141241890484E-10 -7.486525662932318E-10 2.095488189601213E-12
peri -4.961262504416254E-14 1.132877947351444E-13 6.694338964776414E-10 -7.486525662932318E-10 9.385394450869802E-10 -2.04561068467557E-12
i -7.753043838613001E-16 1.99000659369791E-15 6.195679905645116E-14 2.095488189601213E-12 -2.04561068467557E-12 1.813208312570372E-11

Ephemeris | Orbit Diagram | Orbital Elements | Mission Design | Physical Parameters | Discovery Circumstances | Close-Approach Data ]

Physical Parameter Table
Parameter Symbol Value Units Sigma Reference Notes
absolute magnitude H 14.5   n/a MPO431635  
diameter diameter 3.515 km 0.652 urn:nasa:pds:neowise_diameters_albedos::2.0[mainbelt] (http://adsabs.harvard.edu/abs/2011ApJ...741...68M)  
geometric albedo albedo 0.207   0.127 urn:nasa:pds:neowise_diameters_albedos::2.0[mainbelt] (http://adsabs.harvard.edu/abs/2011ApJ...741...68M)  

11698 Fichtelman           Discovered 1998 Mar. 31 by the Lincoln Laboratory Near-Earth Asteroid Research Team at Socorro.
Jon Roger Fichtelman (b. 1986) is a finalist in the 2002 Intel International Science and Engineering Fair for his physics project. He attends the Freshman Learning Center Vero Beach High School, Vero Beach, Florida, U.S.A.
NOTE: some special characters may not display properly (any characters within {} are an attempt to place the proper accent above a character)
Reference: 20020724/MPCPages.arcLast Updated: 2003-10-02

[ show close-approach data ]
Alternate Designations
 1998 FZ102 = 1994 AM15 
Ephemeris | Orbit Diagram | Orbital Elements | Mission Design | Physical Parameters | Discovery Circumstances | Close-Approach Data ]
ABOUT SSD CREDITS/AWARDS PRIVACY/COPYRIGHT GLOSSARY LINKS
FirstGov 2020-Apr-10 13:31 UT
(server date/time)  
NASA Home Page
Site Manager:   Ryan S. Park
Webmaster  Alan B. Chamberlin